[[{"header":{"parameterUnit":"m.s-1","parameterCategory":1,"la1":30.2991,"la2":30.254,"lo1":-89.0895,"lo2":-89.0444,"dy":0.0017,"dx":0.0017,"nx":28,"ny":28,"refTime":"2024-06-20T21:00:00:Z","depth":0,"parameterNumber":2,"parameterNumberName":"U-component_of_WINDS"},"data":[0,0,0,0,0,0,0,0,0,0,0,0,0,0,0,0,0,0,0,0,0,0,0,0,0,0,0,0,0,0,0,0,0,0,0,0,0,0,0,0,0,0,0,0,0,0,0,0,0,0,0,0,0,0,0,0,0,0,-4.4961,-4.496,0,-4.4887,-4.4886,-4.4885,-4.4754,-4.4752,-4.4749,-4.4747,-4.4673,-4.4673,-4.4674,0,0,0,0,0,0,0,0,0,0,0,0,0,-4.4993,-4.4993,-4.4961,-4.496,-4.4959,-4.4887,-4.4886,-4.4885,-4.4755,-4.4752,-4.4748,-4.4746,-4.4673,-4.4673,-4.4674,0,0,0,0,0,0,0,0,0,0,0,0,0,-4.4955,-4.4993,-4.4961,-4.4885,-4.4878,-4.4887,-4.4886,-4.4884,-4.4755,-4.4751,-4.4748,-4.4744,-4.4673,-4.4673,-4.4674,-4.4752,0,0,-4.4675,-4.4676,0,0,0,0,0,0,0,0,-4.4957,-4.4954,-4.4897,-4.489,-4.4882,-4.4826,-4.487,-4.484,-4.4756,-4.4802,-4.4747,-4.4742,-4.4727,-4.4723,-4.4717,-4.4748,-4.4745,-4.4675,-4.4676,-4.4676,-4.4676,0,0,0,0,0,0,0,-4.496,-4.4956,-4.4931,-4.4897,-4.4887,-4.4856,-4.4847,-4.4864,-4.4786,-4.4797,-4.4788,-4.4781,-4.4722,-4.4717,-4.4714,-4.4744,-4.4675,-4.4676,-4.4676,-4.4676,-4.4837,-4.4841,0,0,0,0,0,0,-4.4974,-4.496,-4.4934,-4.4929,-4.4911,-4.4859,-4.4848,-4.4848,-4.4786,-4.4773,-4.4784,-4.4775,-4.4718,-4.4714,-4.4711,-4.48,-4.4676,-4.4676,-4.4677,-4.4834,-4.4838,-4.4843,0,0,0,0,0,0,-4.4975,-4.4972,-4.4937,-4.4942,-4.4935,-4.4862,-4.4863,-4.4848,-4.4843,-4.4775,-4.4761,-4.4793,-4.4715,-4.4711,-4.4743,-4.4795,-4.4677,-4.4677,-4.4829,-4.4835,-4.4841,-4.4977,0,0,0,0,0,0,-4.4976,-4.4974,-4.5002,-4.4943,-4.4935,-4.4969,-4.4866,-4.4849,-4.4844,-4.4831,-4.478,-4.4768,-4.4712,-4.4743,-4.4744,-4.4794,-4.4678,-4.4824,-4.4832,-4.4839,-4.4967,-4.4987,-4.5003,0,0,0,0,0,-4.4978,-4.5043,-4.5004,-4.5001,-4.4968,-4.4972,-4.4967,-4.4901,-4.4848,-4.4877,-4.4834,-4.4769,-4.479,-4.4747,-4.4747,-4.4798,-4.482,-4.4829,-4.4838,-4.4959,-4.4983,-4.5003,0,0,0,0,0,0,-4.5109,-4.5034,-4.4989,-4.5037,-4.5012,-4.495,-4.4983,-4.4928,-4.4917,-4.4906,-4.4824,-4.4814,-4.4858,-4.4831,-4.4785,-4.4872,-4.4795,-4.4804,-4.4887,-4.4909,-4.4927,-4.4933,-4.4678,0,0,0,0,0,-4.5144,-4.5153,-4.5086,-4.5135,-4.5125,-4.5057,-4.5056,-4.5007,-4.4978,-4.4967,-4.4926,-4.4901,-4.4902,-4.4904,-4.4901,-4.4963,-4.4951,-4.4998,-4.5016,-4.5032,-4.5041,-4.5074,-4.5095,-4.4872,-4.4872,-4.4872,0,0,-4.5215,-4.5175,-4.5186,-4.5161,-4.5135,-4.5148,-4.5049,-4.5065,-4.5074,-4.4969,-4.4997,-4.4967,-4.4934,-4.4983,-4.5002,-4.4962,-4.51,-4.5043,-4.5055,-4.5056,-4.5085,-4.5107,-4.5126,-4.4878,-4.4877,-4.4876,0,0,-4.5352,-4.5322,-4.536,-4.5337,-4.53,-4.5255,-4.5265,-4.5211,-4.5187,-4.5214,-4.5137,-4.5146,-4.5149,-4.5129,-4.5119,-4.5251,-4.5193,-4.5253,-4.5347,-4.538,-4.5398,-4.5413,-4.5462,-4.548,-4.5262,-4.5262,-4.5263,0,-4.5446,-4.546,-4.5387,-4.5409,-4.5401,-4.5307,-4.5346,-4.5328,-4.5292,-4.529,-4.5245,-4.5248,-4.5219,-4.5262,-4.5295,-4.529,-4.5299,-4.5258,-4.5401,-4.5416,-4.5429,-4.5475,-4.5493,-4.527,-4.5269,-4.5268,-4.5268,0,-4.5578,-4.559,-4.5625,-4.5593,-4.5589,-4.562,-4.5553,-4.5558,-4.551,-4.547,-4.55,-4.5462,-4.5451,-4.5457,-4.5411,-4.5495,-4.5472,-4.5416,-4.5337,-4.5459,-4.5501,-4.5517,-4.5281,-4.5278,-4.5276,-4.5274,0,0,-4.5795,-4.5723,-4.5738,-4.5723,-4.5676,-4.5684,-4.5712,-4.57,-4.5707,-4.5686,-4.5708,-4.5714,-4.5662,-4.5651,-4.5602,-4.5631,-4.5741,-4.5571,-4.5569,-4.5605,-4.5834,-4.5878,-4.5899,-4.5701,-4.5704,-4.5707,-4.5837,0,-4.5923,-4.5964,-4.59,-4.5957,-4.5968,-4.588,-4.5904,-4.5879,-4.5843,-4.5848,-4.5808,-4.5814,-4.5744,-4.5738,-4.5762,-4.5722,-4.5786,-4.5711,-4.5723,-4.5724,-4.5735,-4.592,-4.5966,-4.6091,-4.5853,-4.5856,-4.5858,0,-4.6076,-4.6064,-4.6122,-4.6073,-4.6076,-4.6098,-4.6084,-4.6089,-4.606,-4.6032,-4.6021,-4.5962,-4.5988,-4.5912,-4.5947,-4.5898,-4.5899,-4.588,-4.5883,-4.5882,-4.5799,-4.5926,-4.6129,-4.6148,-4.5882,-4.588,-4.5878,0,-4.6231,-4.6228,-4.6263,-4.6253,-4.6197,-4.6215,-4.6193,-4.616,-4.6158,-4.6146,-4.6144,-4.6135,-4.6131,-4.6126,-4.6068,-4.6017,-4.6111,-4.6029,-4.609,-4.6092,-4.6113,-4.6113,-4.6321,-4.6113,-4.6113,-4.6112,-4.6112,0,-4.6381,-4.642,-4.6332,-4.6353,-4.6396,-4.6323,-4.6367,-4.6336,-4.6308,-4.6323,-4.6246,-4.6263,-4.6184,-4.6192,-4.6147,-4.6184,-4.6182,-4.6161,-4.6149,-4.6169,-4.6172,-4.6169,-4.6159,-4.6117,-4.6116,-4.6115,-4.6114,0,-4.656,-4.6502,-4.6535,-4.6479,-4.6467,-4.6501,-4.6454,-4.6473,-4.6432,-4.6453,-4.6453,-4.639,-4.6397,-4.6338,-4.6332,-4.6302,-4.6361,-4.6333,-4.6371,-4.6362,-4.6427,-4.6422,-4.6641,-4.6667,-4.6442,-4.6444,-4.6446,0,-4.666,-4.6688,-4.6636,-4.6641,-4.6623,-4.6631,-4.6628,-4.6558,-4.656,-4.653,-4.6553,-4.6553,-4.6549,-4.6563,-4.6518,-4.6514,-4.6486,-4.6563,-4.6485,-4.6505,-4.6489,-4.6489,-4.6492,-4.658,-4.6583,-4.6585,-4.6587,0,-4.6844,-4.6814,-4.6813,-4.6804,-4.6803,-4.6792,-4.6776,-4.6784,-4.6708,-4.6714,-4.6719,-4.6716,-4.6712,-4.6713,-4.6701,-4.6679,-4.6622,-4.6612,-4.6626,-4.6647,-4.6668,-4.6659,-4.6417,-4.6607,-4.6605,-4.6603,-4.6602,-4.6602,-4.6987,-4.7009,-4.6976,-4.6979,-4.6959,-4.6947,-4.6962,-4.6924,-4.6927,-4.6917,-4.6876,-4.689,-4.6862,-4.684,-4.6824,-4.6834,-4.6797,-4.6817,-4.6822,-4.6829,-4.6841,-4.6666,-4.6832,-4.6831,-4.683,-4.683,-4.6829,0,-4.7168,-4.7143,-4.7146,-4.7126,-4.7129,-4.7073,-4.7054,-4.706,-4.7072,-4.7051,-4.7049,-4.7057,-4.7058,-4.7014,-4.701,-4.7028,-4.7001,-4.7029,-4.7028,-4.7024,-4.6874,-4.6863,-4.7051,-4.7051,-4.7051,-4.7051,-4.7051,-4.7051,-4.7263,-4.7297,-4.7265,-4.729,-4.7264,-4.7276,-4.727,-4.7259,-4.7242,-4.7253,-4.7254,-4.7225,-4.7195,-4.719,-4.719,-4.7177,-4.718,-4.7217,-4.7196,-4.7056,-4.7035,-4.7014,-4.7003,-4.7218,-4.7218,-4.7345,-4.7347,-4.7348]},{"header":{"parameterUnit":"m.s-1","parameterCategory":1,"la1":30.2991,"la2":30.254,"lo1":-89.0895,"lo2":-89.0444,"dy":0.0017,"dx":0.0017,"nx":28,"ny":28,"refTime":"2024-06-20T21:00:00:Z","depth":0,"parameterNumber":3,"parameterNumberName":"V-component_of_WINDS"},"data":[0,0,0,0,0,0,0,0,0,0,0,0,0,0,0,0,0,0,0,0,0,0,0,0,0,0,0,0,0,0,0,0,0,0,0,0,0,0,0,0,0,0,0,0,0,0,0,0,0,0,0,0,0,0,0,0,0,0,1.198,1.1979,0,1.1927,1.1927,1.1926,1.1933,1.1933,1.1934,1.1935,1.1875,1.1872,1.187,0,0,0,0,0,0,0,0,0,0,0,0,0,1.2081,1.2079,1.198,1.1979,1.1979,1.1927,1.1927,1.1926,1.1932,1.1933,1.1935,1.1936,1.1876,1.1873,1.187,0,0,0,0,0,0,0,0,0,0,0,0,0,1.2033,1.2078,1.198,1.1976,1.1975,1.1927,1.1927,1.1926,1.1932,1.1934,1.1935,1.1936,1.1876,1.1873,1.1869,1.1821,0,0,1.1858,1.1857,0,0,0,0,0,0,0,0,1.2036,1.2029,1.1977,1.1976,1.1975,1.1938,1.194,1.189,1.1932,1.1948,1.1935,1.1937,1.1894,1.1889,1.1876,1.1818,1.1815,1.1858,1.1856,1.1854,1.1853,0,0,0,0,0,0,0,1.2039,1.2032,1.1959,1.1976,1.1975,1.1975,1.197,1.1931,1.1914,1.1947,1.1947,1.1941,1.1894,1.188,1.1875,1.1814,1.1858,1.1855,1.1853,1.1851,1.1712,1.1711,0,0,0,0,0,0,1.2044,1.2034,1.196,1.1957,1.2009,1.1972,1.1966,1.1948,1.1915,1.1911,1.194,1.1942,1.1885,1.1879,1.1873,1.1812,1.1854,1.1851,1.1849,1.1714,1.1712,1.171,0,0,0,0,0,0,1.2046,1.2038,1.1963,1.1996,1.1986,1.1969,1.1949,1.1947,1.1933,1.191,1.1906,1.1929,1.1886,1.1878,1.1834,1.181,1.1849,1.1846,1.1716,1.1713,1.1711,1.1691,0,0,0,0,0,0,1.2049,1.2038,1.2021,1.1996,1.1985,1.1926,1.1948,1.1945,1.1927,1.1929,1.1898,1.1895,1.1887,1.1839,1.183,1.1806,1.1843,1.1718,1.1715,1.1712,1.1694,1.1689,1.1684,0,0,0,0,0,1.2053,1.2016,1.202,1.2011,1.1963,1.1925,1.1918,1.1911,1.1925,1.1906,1.1892,1.1896,1.1815,1.1835,1.1825,1.1799,1.1719,1.1715,1.1712,1.1696,1.169,1.1684,0,0,0,0,0,0,1.2036,1.2013,1.2016,1.1971,1.195,1.1926,1.1902,1.1905,1.1878,1.188,1.1871,1.1864,1.1819,1.1805,1.1827,1.175,1.1769,1.1763,1.176,1.1754,1.1749,1.1751,1.184,0,0,0,0,0,1.2028,1.2001,1.1981,1.1942,1.1932,1.1919,1.1902,1.1899,1.1876,1.1867,1.1849,1.1825,1.1794,1.1774,1.1744,1.1694,1.1686,1.1671,1.1666,1.1662,1.1656,1.1627,1.1619,1.1699,1.1699,1.1699,0,0,1.2008,1.1992,1.1975,1.1939,1.1922,1.1892,1.1911,1.1879,1.1856,1.1861,1.1818,1.1805,1.1777,1.1729,1.1707,1.1716,1.1633,1.1658,1.1655,1.1651,1.1622,1.1615,1.1608,1.1697,1.1697,1.1698,0,0,1.1958,1.1945,1.191,1.1894,1.187,1.1862,1.1854,1.183,1.1821,1.1779,1.1782,1.1755,1.1702,1.1682,1.1665,1.161,1.1611,1.1601,1.1573,1.1545,1.1538,1.1533,1.151,1.1503,1.1596,1.1596,1.1596,0,1.1936,1.1894,1.1892,1.1859,1.1842,1.1849,1.1813,1.1797,1.1763,1.175,1.1762,1.1697,1.1679,1.1625,1.1612,1.1599,1.1588,1.1602,1.154,1.1534,1.1529,1.1507,1.1499,1.1594,1.1594,1.1594,1.1595,0,1.1867,1.1838,1.1813,1.1782,1.1763,1.1729,1.172,1.1701,1.17,1.1691,1.1647,1.1627,1.1593,1.1581,1.1579,1.1527,1.1533,1.1543,1.1561,1.152,1.1499,1.1491,1.1592,1.1593,1.1593,1.1593,0,0,1.18,1.1772,1.1763,1.1749,1.1724,1.17,1.1666,1.1636,1.1618,1.1595,1.1565,1.1522,1.1531,1.1512,1.1508,1.1484,1.1438,1.1496,1.1495,1.1483,1.1377,1.1367,1.1358,1.1441,1.144,1.1439,1.1378,0,1.1745,1.1687,1.1686,1.1631,1.1603,1.161,1.1581,1.1561,1.1552,1.1525,1.1514,1.1483,1.1498,1.1487,1.1463,1.1449,1.1416,1.1454,1.141,1.1408,1.1413,1.1348,1.1337,1.1281,1.1371,1.1369,1.1369,0,1.1672,1.1649,1.1593,1.1573,1.1561,1.1534,1.1506,1.1481,1.1459,1.1454,1.1434,1.1434,1.1398,1.1421,1.137,1.1395,1.1378,1.1368,1.1366,1.1358,1.1383,1.1335,1.1264,1.1254,1.1356,1.1357,1.1358,0,1.1625,1.1581,1.1542,1.153,1.1506,1.1487,1.1475,1.1455,1.1437,1.1412,1.14,1.1371,1.1353,1.133,1.1322,1.134,1.127,1.1293,1.1262,1.1262,1.1243,1.1243,1.1164,1.1238,1.1238,1.1238,1.1239,0,1.1562,1.1526,1.152,1.1495,1.1456,1.1454,1.1414,1.1404,1.1386,1.1358,1.1364,1.1336,1.133,1.1301,1.1295,1.1252,1.1245,1.1238,1.1235,1.1235,1.1235,1.122,1.1222,1.1236,1.1237,1.1237,1.1238,0,1.1501,1.1496,1.1453,1.1435,1.143,1.1401,1.1384,1.1359,1.1353,1.1317,1.1308,1.1296,1.1263,1.1254,1.1214,1.121,1.1158,1.1161,1.1165,1.1164,1.1133,1.1134,1.1037,1.1023,1.111,1.1109,1.1109,0,1.1458,1.1431,1.1411,1.1394,1.1382,1.1354,1.1337,1.1335,1.1315,1.1289,1.1267,1.1236,1.1209,1.1156,1.1142,1.1111,1.1111,1.108,1.1106,1.1106,1.1106,1.1107,1.1103,1.1073,1.1072,1.1071,1.1071,0,1.1382,1.1382,1.1357,1.1331,1.1311,1.129,1.127,1.1255,1.125,1.1228,1.1196,1.1176,1.1136,1.1103,1.1073,1.1059,1.1062,1.1064,1.1054,1.105,1.1053,1.1048,1.1147,1.1064,1.1065,1.1065,1.1066,1.1066,1.1327,1.1303,1.1285,1.1257,1.1243,1.1225,1.12,1.1192,1.1165,1.1134,1.1135,1.1098,1.1077,1.1037,1.1022,1.0992,1.1001,1.0988,1.0984,1.098,1.0976,1.1062,1.0987,1.0987,1.0987,1.0987,1.0987,0,1.1248,1.1238,1.1213,1.1186,1.1163,1.1174,1.1153,1.1132,1.1101,1.1082,1.1058,1.102,1.0988,1.0974,1.0942,1.0921,1.0922,1.0913,1.0912,1.0908,1.0971,1.0981,1.0912,1.0912,1.0912,1.0912,1.0912,1.0912,1.1204,1.1164,1.1162,1.1114,1.1104,1.107,1.1056,1.1039,1.1024,1.0982,1.0957,1.0949,1.0931,1.0899,1.087,1.0867,1.0853,1.0842,1.0839,1.0896,1.0904,1.0911,1.092,1.084,1.084,1.0778,1.0777,1.0777]}]]